ARIANE 40 R/B (22830 NORAD) Tracking and Keplerian Element Data

This shows tracking and keplerian element data for the satellite.

Feedback or suggestion? Click here.




ElementValue
Catalog22830
NameARIANE 40 R/B
Epoch Orbit29414
Epoch Day195.69328574
Epoch Year2018
RAAN224.5088
Inclination98.8557
Eccentricity0.0010178
Argument of Perigee216.7177
Mean Anonmoly143.3309
Mean Motion14.31418446
Decay Rate-3.2E-07
L11 22830U 93061H 18195.69328574 -.00000032 00000-0 54986-5 0 9995
L22 22830 98.8557 224.5088 0010178 216.7177 143.3309 14.31418446294145

Live tracking and technical data element details for ARIANE 40 R/B (NORAD 22830). ARIANE 40 R/B can be tracked NOW for your location showing map with azimuth and elevation plus other details from your city location.

Track the satellite on the map from your city or location and see movement details for azimuth, elevation, latitude, longitude, range, height, and movement on the map or in text.







IsCatalogInMostPopularTable: catalog: 22830, numindb: 28
Update: records affected: 1



GetName: 22830 ARIANE 40 R/B

Hit Count: updated at: Sun, 15 Jul 2018 23:05:30 GMT